RH
44 44 46 47 49 51 52 52 53 53 52 51 53 59 66 74 81 81 77 75 75 75 74 75 76 78 80 80 80 80 79 78 79 79 79 78 78 79 80 81 81 82 82 80 78 77 73 70 68 66 67 66 66 71 76 80 81 81 85 83 78 81 86 90 94 90 78 70 71 71 61 50 45 42 31 19 17 18 14 13 14 13 11 9 10
45 45 47 49 51 53 55 54 55 55 54 52 52 57 64 71 78 79 77 75 75 75 74 75 76 77 80 81 81 81 80 80 80 80 79 78 78 80 80 81 82 81 80 77 75 74 70 66 63 61 60 58 58 59 62 67 69 72 80 80 73 76 84 87 87 86 80 73 69 61 48 40 39 40 34 23 21 23 19 16 15 15 13 11 11
46 47 49 51 52 55 57 57 57 58 55 53 54 56 61 69 76 78 77 76 76 75 75 75 76 77 79 81 81 81 82 81 81 80 80 79 80 81 81 82 81 80 78 75 73 70 66 62 59 56 55 52 50 50 51 54 56 61 71 73 69 70 75 78 79 80 78 71 62 50 39 36 37 38 37 27 23 29 26 17 16 18 18 16 13
47 49 50 52 53 57 60 59 59 60 57 55 55 57 60 66 74 78 77 77 77 77 76 75 76 77 78 80 81 82 82 82 81 81 80 80 81 82 83 83 81 79 77 73 71 67 62 59 56 53 52 49 46 45 44 44 44 46 52 55 55 55 55 58 64 68 66 59 51 45 40 38 35 35 38 29 25 36 33 16 13 16 16 18 16
47 49 51 53 54 58 61 61 61 61 59 57 57 58 60 64 71 76 77 77 77 77 77 77 76 77 79 80 81 82 82 82 81 81 80 81 82 82 83 83 80 79 75 71 68 64 61 58 54 51 50 46 45 43 41 41 39 38 38 40 46 51 48 46 48 52 51 48 47 42 39 39 35 34 41 33 25 31 26 12 14 17 11 12 19
46 49 51 54 55 58 61 61 61 61 59 58 58 59 61 64 69 73 75 76 77 77 77 77 76 77 79 80 81 82 83 82 81 81 81 82 83 83 83 82 80 77 73 69 66 63 60 57 51 48 46 43 42 40 40 40 37 36 35 35 43 53 54 50 49 48 46 45 46 41 39 41 35 35 43 38 30 32 22 9 9 13 11 12 18
46 49 52 54 56 58 61 62 61 62 61 59 59 60 62 65 68 71 74 76 76 76 76 76 76 77 78 80 82 82 83 83 81 81 81 82 82 83 82 81 78 75 71 67 65 61 58 53 48 44 41 40 39 37 37 37 35 33 31 30 33 42 51 53 50 50 47 44 45 45 46 46 38 41 46 31 20 27 32 31 25 14 10 13 19
45 48 51 53 56 59 63 63 62 62 61 60 59 60 62 65 67 69 72 74 75 76 75 75 76 77 78 80 81 82 83 83 81 81 81 82 82 81 81 80 77 73 70 66 63 60 54 47 44 42 40 40 39 37 35 34 33 31 28 28 26 28 39 45 45 52 54 50 49 49 53 54 46 50 51 33 28 37 43 57 62 44 24 15 19
45 48 51 52 57 63 65 64 63 63 62 60 59 60 62 64 65 68 70 71 74 74 75 75 75 76 78 80 82 83 83 82 82 81 80 81 82 81 79 78 77 74 69 65 61 56 50 45 43 42 41 39 38 36 34 32 32 31 28 28 26 24 30 33 36 49 59 61 58 53 61 67 62 72 80 70 67 61 46 52 66 55 35 17 12
51 49 51 54 60 66 67 65 65 64 62 61 60 60 62 62 64 66 67 70 72 73 74 75 74 75 77 79 81 82 83 83 81 80 80 80 80 80 79 77 76 73 69 65 59 53 49 47 44 42 40 39 37 36 35 33 32 32 31 29 27 25 28 30 33 44 59 72 70 63 71 72 65 86 104 89 75 63 49 57 65 54 42 29 16
60 57 56 60 66 69 68 67 66 64 61 60 60 61 61 61 64 65 65 68 70 71 73 74 74 75 76 79 81 82 83 82 82 86 90 86 80 79 79 78 75 72 69 64 58 53 50 47 44 42 40 39 37 36 35 33 32 31 29 29 28 27 29 32 35 38 50 70 73 70 80 75 62 86 108 92 76 68 62 69 70 61 61 64 54
62 63 63 65 69 71 70 69 66 62 60 60 60 61 61 61 64 65 65 67 68 70 73 75 75 75 76 79 81 81 82 81 83 94 99 95 88 80 77 78 76 71 68 64 58 56 53 47 44 42 40 39 38 37 36 35 36 36 32 30 28 28 30 35 39 41 48 65 72 71 79 78 68 79 99 96 83 72 66 64 63 63 67 75 75
66 68 68 70 72 73 71 70 66 61 59 60 61 62 62 63 66 67 68 69 69 71 74 75 76 76 76 78 80 82 82 82 88 97 100 101 98 85 76 77 76 71 68 64 60 57 53 50 47 42 40 40 38 38 40 43 47 49 46 42 36 29 29 31 37 44 49 60 69 66 68 77 71 66 83 99 95 84 77 65 54 57 62 66 66
73 73 71 72 74 74 73 70 65 60 59 61 63 63 63 65 69 71 72 72 72 74 76 76 76 76 77 78 81 82 83 86 94 100 99 101 101 90 77 74 74 72 68 65 63 58 52 52 50 45 41 40 39 42 46 48 52 56 57 56 50 40 33 29 29 33 34 43 56 54 50 59 64 64 77 95 99 96 92 72 51 51 57 56 51
78 76 74 73 73 73 72 70 64 59 60 64 66 65 65 68 72 74 75 75 77 80 80 79 78 78 78 79 81 82 83 90 98 101 100 100 101 97 85 75 72 73 71 67 65 60 54 50 48 45 41 41 44 46 44 44 51 61 63 62 56 44 34 30 29 28 28 34 46 49 49 57 73 86 95 100 102 98 87 68 53 53 55 50 39
80 78 75 72 70 69 70 66 61 60 63 67 68 66 66 70 74 76 76 76 80 84 85 83 82 80 79 79 82 82 82 90 99 100 100 100 100 101 95 81 71 70 73 72 66 62 57 51 48 46 42 42 45 44 50 63 74 79 76 66 53 39 31 33 36 31 29 34 44 57 71 81 89 94 93 92 93 80 59 48 45 48 54 54 44
79 77 72 68 66 67 68 65 62 63 66 68 69 67 68 73 75 77 77 76 78 82 84 84 84 83 81 80 82 83 81 88 97 100 101 101 99 101 99 88 75 68 70 72 67 63 58 51 50 48 41 43 43 38 56 88 99 97 90 73 54 43 41 42 41 33 26 26 31 42 51 56 57 56 53 55 59 51 41 41 42 45 54 64 65
76 71 67 66 66 66 67 66 65 66 68 70 70 68 70 76 77 78 78 78 79 82 84 86 88 88 86 83 82 83 81 84 93 98 100 101 100 100 99 92 80 70 68 69 66 62 57 52 53 49 41 43 38 33 59 96 104 99 92 74 57 54 53 48 39 31 25 22 23 27 30 31 33 35 36 38 40 42 43 43 45 49 55 65 75
72 68 68 68 68 68 69 70 69 69 70 72 71 70 74 80 80 79 80 79 80 84 86 89 92 93 94 92 87 84 82 82 86 92 97 101 100 100 100 92 81 73 71 70 67 63 58 53 52 48 44 41 35 42 75 102 101 94 87 73 63 62 58 48 39 33 27 21 21 23 25 30 37 40 41 41 43 47 50 50 52 56 58 60 69
71 70 70 69 70 70 72 72 71 71 74 74 72 72 77 83 83 82 82 81 82 87 90 92 92 90 92 94 89 83 82 83 84 89 96 102 100 99 101 95 82 74 73 72 70 68 65 60 55 50 44 38 42 64 92 103 99 93 85 80 81 78 65 49 40 36 29 21 21 25 28 37 46 50 49 47 50 55 55 54 53 55 61 64 64
73 73 71 70 72 73 74 75 75 75 78 77 75 78 83 86 86 85 84 83 85 89 89 89 89 86 86 90 90 85 83 84 88 94 99 102 99 99 101 97 87 76 70 69 70 69 69 67 62 56 48 41 55 85 100 100 100 93 84 90 99 90 68 49 39 36 28 22 24 31 39 48 52 53 52 50 53 57 55 52 50 50 57 64 64
75 74 73 73 74 75 75 76 77 79 80 78 79 84 88 90 90 87 86 87 89 89 87 87 88 86 87 93 97 93 87 85 91 98 101 100 100 100 100 97 90 79 68 65 66 65 67 66 63 62 55 43 57 90 103 99 99 92 87 95 93 72 53 44 40 36 29 25 30 39 49 55 52 50 50 50 51 53 50 47 46 46 50 53 58
72 72 73 73 75 76 76 77 78 79 81 83 86 90 93 93 92 90 89 90 91 90 87 87 88 87 88 92 96 97 93 90 93 99 101 100 100 101 99 96 93 81 66 60 61 63 65 64 61 62 53 40 59 96 103 89 82 77 75 76 65 49 45 44 41 37 33 32 40 48 52 53 50 49 49 47 45 44 42 40 41 43 44 43 45
70 70 70 70 71 73 74 76 77 78 82 87 91 95 97 96 94 93 92 92 92 92 91 90 90 89 89 90 92 96 98 96 96 99 101 101 101 102 101 98 95 85 67 55 56 62 66 65 61 58 47 41 63 89 82 63 57 55 52 51 47 44 47 45 40 40 40 40 46 50 46 44 47 50 48 45 43 41 38 39 39 40 41 38 36
72 72 71 71 72 73 74 75 77 78 82 87 92 96 99 99 96 95 96 95 94 95 93 91 89 89 89 89 89 91 96 99 99 99 100 101 101 102 102 100 97 90 74 57 51 55 59 58 54 51 44 42 53 60 51 44 45 44 42 45 45 44 46 45 44 44 43 41 43 43 39 40 45 47 45 43 44 43 41 42 40 40 42 39 33
78 78 78 78 77 77 79 79 80 81 84 89 93 96 100 100 97 96 98 98 96 94 93 91 88 86 86 87 86 86 91 98 101 100 100 101 100 100 101 101 99 93 80 63 52 50 51 50 48 47 47 46 45 43 41 41 44 45 47 51 52 51 49 47 47 48 45 43 42 41 41 43 43 42 43 45 46 46 49 51 47 41 42 44 41
85 87 90 88 84 83 85 86 87 87 88 91 94 97 100 101 99 98 98 97 95 93 92 91 89 86 84 84 84 84 87 94 100 101 100 100 99 98 101 102 100 96 86 70 57 51 50 49 48 48 47 45 43 44 49 53 56 59 63 65 66 66 61 54 50 50 49 47 48 48 47 45 42 40 43 47 48 47 51 56 55 46 42 49 56
92 94 95 93 91 91 91 92 94 94 94 94 94 96 100 101 100 98 97 96 94 91 89 88 87 86 84 83 83 83 83 89 95 98 98 99 98 98 100 100 98 96 88 73 62 57 54 51 51 51 49 48 52 58 64 68 68 68 69 72 75 75 71 64 57 53 52 54 56 54 47 42 41 43 46 50 49 47 48 51 52 49 47 55 65
94 96 96 95 96 98 96 96 97 96 96 98 97 96 98 100 100 98 97 95 93 91 89 87 86 84 84 84 84 83 83 87 93 95 97 100 101 100 101 99 96 94 87 76 70 69 64 57 54 55 57 60 66 71 72 72 72 71 72 77 79 79 77 72 63 55 55 58 58 52 44 40 42 47 52 53 48 44 45 48 49 50 55 62 68
93 97 99 99 100 100 98 99 99 97 96 98 97 96 95 95 96 96 95 94 94 94 92 90 87 86 85 84 84 85 86 90 94 96 98 101 102 101 101 101 100 97 90 81 78 75 68 62 63 66 70 73 75 76 77 78 78 78 79 81 83 83 80 74 67 61 59 58 54 46 40 41 47 52 56 56 50 45 44 46 50 55 61 65 69
93 95 99 101 100 98 96 96 98 99 98 97 98 98 96 93 91 91 90 89 90 92 94 93 90 89 89 87 86 86 87 90 92 94 96 98 100 100 101 101 102 101 95 90 89 83 71 66 71 76 78 79 79 78 79 81 82 84 86 87 88 87 81 74 68 64 60 55 48 40 38 45 54 58 59 60 57 51 47 48 53 59 63 67 71
94 94 95 98 98 97 95 95 96 97 97 96 96 97 97 95 92 89 87 87 88 89 89 88 87 88 89 90 91 90 89 92 95 95 95 96 98 99 101 101 100 101 100 99 100 95 81 72 75 79 80 80 79 78 79 82 86 89 90 91 90 89 84 78 71 63 56 50 44 40 42 50 58 61 62 63 63 59 55 55 59 63 67 71 74
96 95 94 96 96 97 98 99 99 98 97 97 98 97 96 96 94 90 88 89 92 92 89 86 85 85 84 88 95 99 97 97 100 100 99 99 100 100 101 101 100 100 101 101 102 100 92 83 81 82 83 82 81 81 82 86 90 92 93 94 93 91 86 80 71 60 52 49 48 46 47 52 58 62 63 63 63 64 64 64 66 70 74 77 79
96 95 96 98 98 96 97 100 101 100 99 98 98 97 95 94 93 92 90 89 90 92 91 90 91 91 87 88 95 102 102 100 101 101 100 100 101 100 100 100 100 100 100 101 101 101 98 94 89 87 87 87 86 85 86 88 91 93 94 95 95 92 88 80 68 56 50 50 53 51 48 50 55 61 64 64 65 68 69 70 73 77 80 83 84
89 92 97 102 101 98 99 103 103 102 100 98 97 96 95 94 93 93 92 91 89 89 88 88 90 93 96 96 96 99 100 100 100 100 100 100 100 100 101 101 100 100 100 100 101 101 101 99 96 92 90 90 89 88 89 91 92 94 94 95 95 94 87 74 59 50 48 51 53 49 46 48 55 63 69 70 70 72 73 76 79 82 84 87 88
83 87 94 102 103 100 100 101 100 100 100 98 97 97 95 94 94 93 92 92 91 89 89 87 86 88 94 96 95 96 99 101 101 100 100 100 100 100 101 101 100 100 101 100 99 98 97 97 96 94 93 93 92 91 92 93 94 95 96 95 95 92 80 63 50 45 46 48 47 44 44 51 59 67 71 73 73 76 78 80 82 84 86 88 90
89 92 93 96 98 95 94 95 96 98 98 94 93 94 95 95 95 94 93 92 90 89 89 88 87 87 88 87 88 91 95 98 100 101 101 100 100 102 103 101 99 99 100 101 99 96 93 91 91 92 93 93 93 94 95 96 97 98 97 96 94 87 71 53 44 44 46 46 43 42 47 56 63 69 74 76 76 78 80 82 85 86 86 89 92
95 99 98 98 94 90 90 93 96 99 100 96 94 96 98 98 96 94 92 92 91 90 89 88 88 88 87 86 86 90 95 97 99 100 101 100 99 101 102 101 100 98 99 100 99 97 95 93 91 90 92 94 95 96 96 97 99 99 98 95 92 82 66 50 44 45 47 46 44 45 52 60 64 68 74 78 79 81 82 84 87 89 89 90 93
90 93 98 101 97 91 93 96 97 98 98 98 98 97 97 96 95 93 92 91 90 90 90 89 88 87 87 86 86 89 95 98 97 96 97 97 96 97 100 102 102 99 98 97 97 96 97 97 97 95 95 97 98 98 97 99 100 98 96 94 88 75 59 47 45 47 47 46 45 48 55 60 62 67 74 78 80 83 84 84 87 91 94 95 96
89 89 94 98 98 96 97 98 98 97 98 99 99 97 96 95 94 93 93 92 91 90 89 89 89 87 86 86 87 90 95 96 94 92 93 93 93 95 97 100 102 100 97 97 97 95 95 97 99 98 96 97 99 98 98 100 99 96 94 90 81 67 53 45 46 47 46 45 46 50 54 59 63 69 75 77 78 81 84 86 88 91 95 97 97
90 90 91 95 99 101 100 98 98 99 100 99 96 94 93 94 94 94 93 92 92 91 90 90 89 88 86 87 91 96 99 97 93 91 90 90 91 93 94 95 97 97 95 95 95 95 95 97 99 98 96 97 99 100 100 100 98 95 92 85 74 60 50 45 46 47 45 46 48 52 55 59 66 72 75 74 75 78 83 87 90 92 95 97 97
92 93 94 97 100 101 101 99 99 98 98 98 97 95 96 97 96 95 94 93 92 92 91 91 89 88 88 89 93 98 101 97 93 92 92 90 90 91 92 93 94 94 95 96 97 98 100 100 100 98 97 98 101 102 102 100 98 95 90 82 70 59 49 45 46 46 46 47 49 51 54 59 66 72 73 72 74 79 83 88 92 94 95 95 94
92 94 99 101 100 100 100 98 97 97 97 98 98 98 97 95 94 93 93 94 94 93 92 92 91 89 89 89 91 94 97 95 92 92 94 94 92 90 90 92 94 96 98 100 101 102 103 102 100 99 98 98 100 101 101 99 97 94 89 81 72 60 50 45 45 46 46 47 47 48 53 60 66 70 71 71 75 80 85 88 91 93 94 96 95
91 96 101 101 100 100 99 97 97 98 98 96 96 95 93 92 92 93 94 94 94 93 92 92 91 90 90 89 90 91 94 95 94 93 94 96 95 92 92 93 95 97 99 100 99 98 98 98 99 99 100 101 102 102 100 98 94 91 87 80 69 56 47 45 46 46 46 47 47 48 55 62 66 69 70 71 77 82 85 87 90 93 94 96 96
92 95 98 98 98 98 97 95 95 95 95 94 95 96 94 93 93 93 93 93 93 92 92 91 91 90 90 90 90 91 92 93 95 95 95 95 96 95 94 94 95 96 99 100 99 97 96 96 97 98 101 103 103 100 97 94 90 86 79 68 56 47 44 45 47 46 46 47 47 51 59 64 67 68 70 72 77 82 84 85 90 94 95 95 95
93 97 98 99 99 98 97 94 93 93 93 94 94 94 94 94 93 91 92 92 92 92 92 91 90 90 90 90 90 90 90 91 93 94 93 93 95 96 96 96 97 99 101 102 101 100 100 101 101 101 102 102 100 96 93 90 85 76 64 52 45 44 45 46 46 45 45 46 50 56 63 66 66 68 71 73 76 79 82 85 88 92 95 96 95
92 100 101 100 99 98 96 94 94 94 94 93 92 92 93 93 93 92 92 92 92 92 92 92 91 91 91 91 90 90 91 91 93 94 95 96 97 98 97 97 98 100 101 100 99 100 101 103 104 104 102 100 98 95 92 89 82 67 51 43 43 44 44 45 45 44 44 48 54 61 66 67 67 68 70 72 74 77 80 83 85 89 94 96 96
87 97 100 100 99 98 97 95 94 94 93 93 92 93 93 92 93 93 93 93 94 93 93 94 93 92 92 92 91 91 92 93 95 96 97 98 99 99 99 98 98 99 100 100 101 101 102 103 103 101 99 98 96 95 93 89 78 59 45 42 44 44 43 43 44 43 45 51 59 64 67 68 68 69 69 70 73 76 80 82 83 88 93 95 95
85 94 98 99 99 98 97 96 95 94 94 94 94 94 94 94 93 93 93 94 94 93 93 93 93 93 93 93 93 92 93 94 95 97 98 98 99 100 101 100 100 100 102 103 103 103 102 101 100 97 96 95 95 94 91 82 66 50 43 43 43 43 43 44 43 45 50 57 62 66 67 68 68 68 68 68 71 74 77 79 83 89 93 93 92
86 93 94 96 99 100 98 98 97 96 96 96 96 96 95 95 94 93 93 94 95 95 95 95 95 95 95 95 95 96 96 97 98 99 100 100 100 101 100 100 101 103 104 103 102 101 99 95 90 88 87 87 87 83 75 63 51 44 42 43 42 43 44 44 44 48 55 61 63 65 66 66 66 65 65 66 68 69 71 75 81 87 90 91 91
86 91 91 93 97 100 100 100 99 98 97 98 98 97 97 97 97 96 96 96 96 97 97 97 97 97 96 97 97 98 99 100 100 100 99 100 100 101 100 100 102 104 103 101 98 95 89 83 77 72 69 68 66 62 54 47 43 42 41 41 42 44 44 44 48 54 60 63 63 64 64 64 65 64 62 62 62 64 67 72 78 83 88 92 95
Wind_Speed
10 8 8 7 6 4 3 3 3 3 4 6 7 7 7 7 7 7 7 7 7 7 8 8 8 8 8 8 9 9 9 9 9 9 9 8 8 8 8 8 9 9 9 9 10 10 11 12 12 12 11 11 11 11 9 8 9 9 8 8 7 7 8 8 6 5 7 9 11 10 10 12 11 11 16 18 15 14 16 16 15 16 17 16 14
11 10 9 8 6 5 4 2 1 2 4 5 6 7 7 6 6 6 7 7 7 7 8 8 8 8 8 8 8 8 8 8 8 8 8 8 8 8 8 8 8 9 9 9 10 10 10 11 11 11 11 11 11 11 10 9 8 9 10 10 10 9 9 9 7 6 7 8 11 10 10 10 10 11 16 19 17 14 17 18 15 15 17 17 14
12 11 10 9 8 6 5 3 1 0 2 4 5 6 6 6 6 6 6 7 7 7 8 8 8 8 8 8 8 8 8 8 8 8 8 8 8 7 8 8 8 8 9 9 9 10 10 10 11 11 11 10 11 11 10 10 9 9 8 9 10 11 9 9 7 7 8 9 10 11 12 13 11 11 16 18 16 14 17 18 15 14 17 18 15
14 13 11 10 9 8 6 4 3 1 1 3 5 5 6 6 5 6 6 6 7 7 8 8 8 8 8 7 7 7 7 7 7 7 7 7 7 7 7 7 8 8 8 8 9 9 9 10 11 11 10 10 10 10 10 11 11 10 9 8 9 11 11 9 7 6 7 8 9 10 13 13 11 11 15 18 16 14 16 16 14 14 16 17 15
16 14 13 12 11 10 8 6 4 3 2 2 4 4 5 6 6 6 6 6 7 7 8 8 8 8 7 7 7 7 7 7 7 7 7 6 6 6 6 6 7 7 7 8 8 9 10 10 10 10 10 10 10 10 10 11 11 10 9 9 8 10 10 10 9 8 7 8 10 10 11 11 10 10 14 18 17 15 16 15 14 15 16 16 14
18 16 15 13 12 11 10 8 6 4 3 2 3 4 5 6 6 6 6 6 7 7 7 8 8 7 7 7 6 6 6 6 6 6 6 5 5 5 5 6 6 7 7 8 8 9 9 9 9 9 9 10 10 10 10 10 10 10 9 9 8 7 8 9 9 8 8 8 9 11 11 10 12 12 14 16 16 17 20 18 15 16 18 18 15
21 19 17 15 13 12 11 9 7 5 4 2 3 4 4 5 6 6 6 6 7 7 7 8 8 7 7 7 6 6 6 6 6 6 5 5 4 4 5 5 5 6 6 7 8 8 8 8 8 8 9 10 10 10 10 10 10 10 10 9 9 7 7 8 7 7 8 9 9 11 11 11 13 14 14 15 14 16 22 22 21 20 21 20 18
24 21 19 17 15 14 12 10 8 6 4 3 3 4 5 5 6 6 7 7 7 7 8 8 8 8 7 7 6 6 6 6 5 5 5 4 4 3 4 4 5 5 5 6 6 6 7 7 7 7 8 9 9 10 10 10 9 9 10 10 9 8 8 8 8 7 9 10 11 11 11 12 14 15 16 19 19 19 21 21 21 23 24 21 17
26 24 21 19 17 15 13 11 9 7 5 3 4 4 5 6 6 7 7 7 7 8 8 8 8 8 7 7 6 6 6 5 5 4 4 4 4 3 3 3 3 4 4 5 5 5 6 6 6 7 7 7 7 8 9 9 9 10 11 11 10 10 9 9 9 8 9 11 12 12 12 13 16 17 18 19 19 19 20 20 19 22 26 24 18
27 25 23 20 18 17 15 12 10 7 5 4 5 5 5 6 7 7 7 7 8 8 8 8 8 8 7 6 6 5 5 4 3 3 4 5 4 4 3 3 2 3 3 3 4 4 4 5 5 5 5 5 5 6 7 8 9 10 11 11 11 11 10 9 10 9 9 10 12 13 13 13 15 15 15 17 17 19 21 21 21 23 26 26 22
26 24 22 20 19 18 16 13 10 8 6 5 5 5 6 7 7 7 7 7 8 8 8 8 8 8 7 6 6 5 5 4 3 3 4 5 6 5 4 3 2 1 2 2 2 2 3 4 4 4 4 4 4 5 6 7 8 9 9 10 11 11 11 10 10 9 9 9 10 11 12 13 14 12 13 17 19 20 21 20 20 22 22 19 17
25 23 22 21 20 18 16 13 11 9 7 6 6 6 6 7 8 8 7 7 8 8 8 8 7 7 7 6 6 5 5 5 3 2 2 4 6 7 4 3 3 2 1 1 2 2 2 2 3 3 3 3 4 5 5 6 8 8 9 9 9 10 10 10 9 9 9 9 9 10 11 13 14 12 14 17 19 20 22 20 19 19 20 16 16
25 23 22 21 20 18 16 14 12 9 7 7 7 6 7 8 8 8 7 7 7 8 8 8 7 7 7 6 6 5 5 5 2 1 4 5 7 8 6 5 4 3 2 2 2 2 2 2 2 2 3 3 3 4 5 6 8 9 10 9 9 9 8 8 9 8 9 9 9 10 11 12 14 14 14 15 18 20 22 23 21 20 21 19 21
22 22 22 21 19 18 16 14 12 9 8 8 7 7 7 8 9 8 7 6 6 7 8 8 7 6 6 6 6 5 5 4 2 3 6 8 7 8 7 6 4 4 3 3 3 3 3 3 3 3 3 3 2 3 4 6 8 10 11 10 9 8 7 8 9 10 10 10 11 12 12 12 14 16 15 15 17 19 20 22 23 22 23 23 25
20 21 21 20 19 18 16 14 12 10 9 8 8 7 7 9 9 7 6 6 6 6 8 8 7 6 5 6 6 5 4 3 3 3 7 10 9 7 7 7 5 4 4 4 4 4 4 4 4 4 4 3 2 3 4 6 8 10 12 11 10 8 7 8 11 12 13 13 13 14 15 15 15 16 17 17 17 19 20 21 21 21 22 25 28
19 20 20 19 18 17 15 14 12 10 9 9 8 8 8 9 8 7 6 6 5 6 8 9 8 7 6 6 6 6 4 5 5 3 7 12 11 8 7 8 6 3 4 4 5 4 4 5 5 5 5 4 4 5 6 8 10 12 12 11 10 8 7 8 11 13 13 12 13 14 14 15 15 15 16 15 16 19 21 20 19 18 20 24 27
19 19 19 18 16 15 14 13 11 10 9 9 9 8 8 9 9 7 7 7 6 7 9 9 9 8 6 6 6 6 5 7 8 4 6 13 14 10 8 9 8 5 5 5 6 6 5 5 6 6 6 5 5 5 5 7 10 12 13 12 10 9 8 9 11 12 12 11 11 12 13 13 13 13 13 13 14 17 18 18 18 17 19 19 18
16 17 16 15 14 13 13 12 11 10 9 9 9 8 8 10 9 8 8 7 7 7 8 8 8 8 6 6 6 7 7 8 11 7 6 13 16 11 8 8 9 8 7 5 6 6 5 6 6 7 6 6 6 5 4 7 10 11 12 12 11 9 9 11 13 13 11 10 11 11 12 12 11 11 11 12 13 14 15 16 16 17 19 17 15
12 13 13 13 12 11 12 11 10 10 10 10 9 9 9 10 9 9 8 8 7 6 6 7 7 7 7 7 7 8 8 8 11 9 7 13 17 13 9 8 8 9 8 6 6 6 6 6 6 6 6 6 6 3 4 7 10 10 10 11 11 9 10 14 17 17 15 13 12 12 12 11 12 13 13 14 15 14 15 16 16 17 19 20 19
9 9 10 10 10 10 10 11 10 10 10 10 10 9 10 10 10 9 9 7 5 4 5 7 8 8 8 9 9 9 8 9 10 9 9 15 17 13 10 8 8 8 8 7 7 7 7 7 6 6 6 5 3 2 4 8 10 9 9 11 11 11 13 16 18 18 17 16 15 15 14 13 13 15 16 17 17 17 18 19 19 20 19 22 23
6 7 8 8 9 9 9 10 10 10 10 11 10 10 10 10 11 10 9 7 6 8 10 11 11 10 9 10 10 10 9 9 9 8 11 17 17 14 13 11 9 8 8 8 7 7 7 8 7 6 6 4 2 2 2 6 10 10 9 8 9 11 16 19 19 17 16 16 16 16 14 13 14 15 16 17 17 18 20 21 22 23 22 23 25
4 4 5 6 7 8 9 9 10 11 11 11 11 11 11 12 12 11 10 8 9 11 12 11 12 11 10 9 10 11 10 11 10 10 11 14 15 15 14 13 10 9 9 8 7 7 7 7 9 9 8 6 3 1 4 10 11 11 9 8 10 15 17 18 18 16 15 16 16 16 14 14 16 16 17 18 18 19 21 22 22 22 22 22 23
2 3 4 5 6 7 8 9 10 10 11 11 11 11 12 13 13 12 11 10 11 12 12 11 11 11 10 10 11 11 11 10 13 15 14 14 14 14 14 14 12 10 9 9 8 7 7 9 11 12 11 9 5 5 10 13 12 12 12 12 15 17 17 16 15 15 15 15 16 15 15 16 17 18 19 20 20 20 21 20 20 20 21 23 24
3 4 4 5 6 7 8 9 10 10 10 11 11 12 12 13 13 12 11 11 11 11 10 9 9 9 9 9 10 11 11 11 12 16 17 17 17 14 13 14 13 10 9 10 8 8 9 11 12 12 11 9 8 10 14 14 13 13 13 14 15 15 14 14 14 14 15 15 15 16 17 17 18 19 20 21 21 21 22 21 22 22 24 26 28
5 5 6 6 7 8 8 9 10 10 10 11 11 12 13 13 12 11 11 11 11 10 9 9 9 9 8 8 8 10 11 11 10 12 14 17 18 16 13 14 15 12 10 10 10 11 12 13 13 12 11 10 11 13 14 14 13 13 12 12 12 12 12 13 13 13 15 16 16 17 18 17 18 19 21 21 22 23 23 24 25 26 27 29 32
6 7 7 8 8 8 9 9 10 10 10 11 11 11 11 12 12 11 11 11 11 10 9 10 10 10 10 10 9 9 10 11 10 10 12 14 16 15 14 14 15 14 11 10 11 12 12 12 12 11 10 10 11 12 12 11 11 11 10 10 11 11 11 12 13 14 15 16 17 17 18 18 20 21 21 21 23 23 23 25 28 29 29 30 33
7 7 8 9 9 9 9 9 10 10 10 11 11 11 10 11 11 10 11 12 11 10 10 10 10 10 10 10 10 9 10 10 10 10 12 13 14 14 13 14 15 14 12 11 11 11 11 11 10 10 9 10 10 10 9 9 9 9 9 10 11 12 12 12 13 14 15 15 16 17 18 20 22 22 22 22 23 23 22 24 27 30 31 30 31
7 7 8 9 9 10 9 9 9 10 10 10 10 10 10 10 11 11 12 12 11 11 10 10 10 10 10 10 9 9 10 10 10 11 12 13 12 12 12 13 13 12 11 10 9 9 10 10 9 9 9 10 10 9 9 9 9 9 10 11 12 13 13 13 13 13 14 14 16 18 20 22 22 22 23 23 24 24 24 25 26 28 29 28 28
9 8 9 9 8 8 9 8 8 9 9 9 10 10 9 10 12 12 12 12 11 11 11 10 9 9 9 9 9 9 8 8 8 9 10 11 11 11 11 11 11 9 8 7 8 9 9 9 9 10 10 10 10 10 9 9 10 10 11 12 13 13 13 14 14 14 13 13 16 19 21 22 22 22 23 24 25 25 26 26 26 27 28 27 28
9 7 8 9 7 6 7 7 7 9 9 9 10 11 10 10 11 13 14 13 13 14 14 13 12 10 10 10 10 9 9 8 7 7 9 9 8 9 9 9 9 8 7 7 9 10 10 10 10 10 10 10 10 10 9 9 10 11 12 13 13 14 14 14 14 13 13 14 17 20 20 20 21 22 22 24 26 27 27 27 26 26 27 27 28
9 6 6 7 7 7 8 8 7 8 8 8 9 10 11 11 11 11 13 13 13 14 16 16 16 15 15 15 14 13 13 13 12 11 10 10 10 10 10 10 11 12 11 11 12 12 12 11 11 11 11 11 12 12 11 11 12 13 13 14 14 14 13 13 14 14 15 17 18 19 18 18 19 21 22 24 26 29 29 28 27 26 27 27 28
10 8 7 8 8 8 9 8 8 8 9 9 9 9 10 11 11 10 10 10 10 11 13 14 14 15 17 18 18 18 17 16 15 13 12 12 12 12 12 12 13 14 15 15 15 14 13 12 12 12 12 13 14 13 12 13 13 14 14 15 15 14 13 13 14 15 16 17 17 17 16 17 19 21 22 23 25 28 29 29 28 28 28 29 29
11 11 10 9 9 9 8 8 8 8 8 8 8 8 9 10 11 11 10 8 9 10 11 12 11 11 13 15 16 16 16 15 13 11 11 10 11 12 12 12 13 15 16 16 16 15 14 14 14 14 14 14 14 14 13 14 14 15 16 16 16 15 14 14 15 15 15 16 17 17 17 18 19 21 23 24 24 26 27 28 29 29 28 29 30
11 11 10 10 11 10 9 8 8 8 8 8 8 9 9 10 11 11 11 11 11 11 11 11 10 9 9 10 11 12 13 13 13 13 12 11 11 11 11 11 12 14 16 17 17 16 15 15 16 16 15 15 15 15 15 15 15 16 16 16 15 15 14 14 15 16 16 16 17 17 18 19 19 20 22 24 25 26 27 28 28 28 28 28 30
11 10 9 10 11 11 8 7 8 8 8 8 8 8 9 10 10 11 11 11 12 12 12 12 10 9 9 9 10 11 12 12 13 13 13 14 13 12 11 12 13 14 16 18 17 16 16 16 16 16 16 16 16 16 15 15 16 16 16 15 15 15 14 15 16 16 16 16 17 18 19 19 19 19 20 22 24 26 27 28 28 28 28 28 29
10 9 7 8 9 9 8 8 9 9 9 9 10 10 11 11 11 11 11 11 12 13 13 12 10 9 9 10 11 11 11 11 12 12 13 13 13 13 14 14 14 15 17 19 19 18 18 18 18 17 17 16 16 15 15 16 16 15 15 15 15 15 15 15 15 15 15 16 16 17 17 17 18 19 20 22 24 25 27 29 29 29 30 29 29
9 9 8 8 9 10 11 11 10 10 11 12 12 12 12 11 11 11 11 11 12 12 12 12 11 10 10 11 11 11 10 11 11 12 12 12 13 14 16 17 16 15 16 18 19 20 20 19 19 18 18 18 17 16 16 16 16 15 15 16 16 16 16 15 15 15 15 16 16 16 17 17 18 19 20 22 25 26 27 28 29 30 31 30 29
8 9 9 10 12 12 11 10 9 9 11 11 11 10 10 10 10 11 11 12 12 12 12 12 11 11 11 10 9 9 8 8 9 10 12 13 13 15 17 18 17 17 17 17 17 18 19 19 18 17 17 17 17 16 16 16 15 15 15 16 16 16 16 16 15 15 15 16 16 17 17 18 19 19 20 21 24 26 28 29 29 30 32 31 30
8 8 8 10 12 12 10 10 9 9 10 10 10 10 10 11 11 11 11 12 12 12 12 11 11 10 10 10 9 8 7 7 8 9 11 12 13 15 16 17 17 17 18 18 17 17 17 17 16 15 15 15 15 15 15 15 15 15 15 16 16 16 16 15 15 15 15 16 16 16 17 18 19 20 20 22 24 26 29 30 30 29 30 31 31
10 9 8 9 10 11 10 10 10 10 10 10 10 10 10 10 11 11 11 12 12 12 12 12 12 11 10 10 10 9 9 9 10 10 10 11 12 13 15 16 17 17 17 18 17 17 17 16 15 15 15 15 15 15 15 15 15 15 15 15 16 16 15 14 14 14 15 15 16 17 17 19 20 21 22 24 26 27 28 29 31 30 29 30 31
10 10 9 8 9 10 11 10 9 10 10 10 10 11 11 11 11 11 12 12 13 13 13 12 12 12 11 11 10 9 10 12 13 13 12 12 11 12 13 15 16 17 17 17 17 17 17 16 16 15 15 15 15 15 15 16 16 16 15 15 15 15 15 14 14 14 15 15 16 17 18 19 20 22 24 26 27 28 28 29 30 30 30 31 31
11 10 10 9 9 10 10 10 10 10 10 10 10 11 11 10 11 12 12 13 13 14 14 14 13 13 12 11 10 9 10 13 14 14 14 14 13 12 11 12 13 14 15 15 15 15 15 15 15 15 15 15 15 16 16 17 17 16 16 15 15 14 14 14 14 15 15 16 16 17 18 20 21 23 25 27 27 28 29 29 30 30 31 31 32
10 9 9 10 10 10 10 11 11 11 10 10 11 11 11 12 13 13 13 14 14 14 14 14 14 13 12 11 11 10 11 13 13 13 13 14 14 14 12 11 11 12 12 12 12 12 12 13 14 14 15 16 16 17 17 17 17 17 16 16 15 15 15 15 15 15 16 16 17 18 19 21 22 24 25 27 27 28 29 30 31 31 31 31 32
10 9 9 10 10 10 11 11 11 11 11 12 13 13 13 13 13 12 12 13 13 13 13 13 13 13 12 11 11 11 12 12 12 11 12 13 13 14 13 12 12 11 12 13 13 14 14 15 15 16 16 17 17 18 18 18 17 17 16 16 16 16 15 15 15 16 16 17 18 20 21 22 23 24 26 27 27 29 30 31 31 32 32 32 33
9 8 9 10 10 10 11 11 11 12 12 12 13 13 12 12 12 12 12 12 12 12 12 12 12 12 12 12 11 11 12 12 12 11 12 12 12 13 13 13 13 13 13 14 15 16 17 17 17 18 18 18 18 19 19 18 17 16 15 15 15 14 14 14 14 15 16 17 19 20 21 22 24 25 26 28 28 29 30 32 31 32 32 33 33
9 9 10 10 10 11 12 11 12 12 12 12 13 13 12 11 12 12 12 12 12 13 13 13 13 12 12 12 12 12 12 12 12 12 12 12 12 12 12 12 13 13 14 15 15 16 17 17 17 18 18 18 19 19 18 17 15 13 13 13 13 13 13 14 14 15 16 17 18 20 21 23 25 26 26 28 29 29 31 32 32 31 32 32 33
10 10 10 10 11 12 12 12 12 12 12 13 13 12 12 12 12 12 12 12 12 13 13 13 12 12 12 12 12 12 12 12 12 12 12 12 12 12 12 13 13 14 15 16 16 16 17 17 18 18 18 18 18 18 17 16 14 13 12 11 12 12 13 13 14 15 16 16 18 20 21 23 26 27 27 29 30 30 31 33 33 32 32 32 32
10 10 10 10 11 12 12 12 12 12 13 13 12 12 12 12 12 12 12 12 12 12 12 12 12 12 12 12 12 11 12 12 11 12 12 11 12 12 12 13 13 14 15 16 16 16 16 16 17 17 16 16 16 16 15 14 13 12 11 11 11 12 13 13 14 15 16 17 18 20 22 24 26 27 28 29 30 31 32 33 33 33 33 33 33
11 10 11 11 12 12 12 12 12 12 12 12 12 12 12 12 12 12 12 11 12 11 11 12 12 12 12 12 12 11 11 11 12 12 12 12 12 11 12 12 13 14 15 15 14 13 14 15 15 14 13 13 13 13 13 12 11 11 10 11 11 12 13 14 14 15 16 17 19 20 22 24 26 27 28 30 30 31 32 33 33 33 33 34 35
11 11 12 12 12 12 11 12 12 12 12 12 12 12 12 11 11 11 11 11 11 11 11 11 11 11 12 12 12 11 12 12 12 12 12 11 11 11 12 13 13 14 14 13 12 12 13 13 13 11 11 10 10 10 10 9 9 9 9 10 11 12 13 13 14 15 16 17 19 21 22 24 26 27 29 30 30 31 33 33 33 33 34 34 36
12 12 13 13 12 12 12 12 12 11 11 11 12 12 12 12 12 11 11 11 12 12 11 11 11 11 12 12 11 12 12 12 12 12 12 12 12 12 12 12 13 13 14 13 11 11 11 11 10 9 8 7 7 7 7 7 8 8 9 10 11 12 12 13 14 15 16 18 20 22 23 25 26 28 29 30 31 32 33 33 33 34 34 33 34
Wind_Direction
188 186 184 180 178 174 150 101 70 47 29 21 20 17 14 12 6 2 1 0 359 354 351 352 350 350 353 356 1 5 6 9 12 15 16 17 22 27 30 31 33 36 35 34 36 35 37 40 39 37 38 37 36 33 28 35 40 38 38 28 14 18 17 4 343 330 345 353 351 349 349 355 2 357 356 2 7 8 9 6 4 3 1 4 11
192 193 190 185 186 187 171 133 90 58 26 17 18 14 10 9 3 358 358 357 357 354 352 353 351 350 352 355 0 3 5 9 11 13 15 17 23 28 31 33 35 36 36 36 38 37 37 40 41 38 38 37 37 34 27 29 36 41 41 26 20 32 28 13 358 338 343 346 344 354 2 359 359 353 352 358 360 1 5 2 359 3 5 6 11
196 197 194 191 196 199 190 176 160 82 15 11 14 10 5 1 353 351 353 352 352 352 350 351 351 349 350 353 358 1 3 8 9 10 14 17 23 28 32 34 35 35 37 38 38 38 38 41 41 39 37 36 38 37 34 33 33 37 41 33 33 37 29 21 14 351 349 351 347 352 2 7 6 348 343 352 360 1 360 357 358 5 6 3 3
199 200 197 196 202 204 200 196 200 227 325 2 8 4 359 355 349 347 347 348 349 348 348 350 349 348 349 351 355 359 2 5 7 9 12 17 22 30 33 35 36 37 38 39 39 38 38 41 41 38 35 35 37 36 36 37 35 33 34 39 45 40 30 29 34 20 1 354 352 353 356 2 8 354 342 347 359 1 354 354 1 4 5 3 358
201 202 200 202 206 205 205 207 209 229 270 343 356 353 352 350 349 346 343 345 347 347 347 347 347 347 348 349 351 355 359 1 4 5 9 16 22 29 36 37 37 37 37 37 36 36 37 39 39 36 34 35 36 34 32 34 36 33 31 36 45 43 34 26 26 27 14 357 352 354 358 358 356 356 350 348 353 352 346 353 7 4 2 4 1
200 203 203 205 208 207 208 210 214 229 255 311 336 339 343 344 344 343 342 341 343 347 346 344 346 346 344 347 350 352 355 357 359 2 6 13 20 30 35 36 38 38 36 35 34 34 36 37 37 37 36 36 36 32 28 29 31 30 28 29 34 40 35 21 14 11 7 2 354 356 4 0 350 354 356 353 355 355 349 351 1 4 2 1 1
197 202 205 206 209 211 210 212 216 226 243 280 316 323 328 333 334 335 337 340 341 345 346 344 346 344 343 345 344 346 350 351 354 357 358 3 14 25 30 32 35 37 35 34 33 32 33 32 34 37 37 36 33 30 27 26 26 27 26 24 23 30 33 21 13 12 9 5 360 1 2 354 351 355 353 352 2 7 2 354 347 352 359 359 356
196 199 203 205 209 210 209 212 216 221 235 266 298 308 315 322 325 327 332 337 339 342 345 346 345 343 341 341 339 341 345 345 349 351 351 355 3 13 23 28 30 33 34 33 32 30 29 28 31 35 36 33 29 28 28 26 25 28 29 27 22 24 29 22 18 26 20 6 360 2 360 350 352 355 354 359 3 2 2 356 343 341 347 351 355
196 197 200 204 206 207 207 211 213 217 228 255 283 295 303 309 315 320 326 331 335 338 341 342 342 341 338 335 333 334 335 337 343 348 351 354 349 351 6 17 24 28 29 31 31 29 25 23 29 34 35 33 29 29 28 25 25 26 27 27 24 23 23 21 21 26 24 13 1 359 359 356 358 359 357 0 359 350 352 354 346 340 340 342 350
198 197 198 201 204 205 206 208 209 213 226 250 271 283 292 298 304 311 318 325 327 329 334 336 336 336 333 329 323 321 323 326 328 341 357 2 353 342 343 357 16 24 22 24 27 26 21 20 26 30 28 26 26 28 29 27 26 27 25 22 23 23 21 21 24 24 25 20 4 359 360 354 358 1 351 345 345 345 351 353 346 341 343 342 344
202 200 199 201 204 205 205 204 205 210 224 245 259 270 282 288 293 301 310 317 318 319 323 324 326 328 326 321 313 308 312 304 297 316 335 351 359 347 329 331 342 354 7 7 3 11 15 13 15 17 15 15 17 20 26 27 25 25 24 20 20 21 20 22 22 19 19 15 1 1 358 346 350 357 343 336 340 343 347 348 342 338 341 340 331
204 204 203 205 206 206 205 203 203 210 224 240 250 258 271 278 283 290 299 306 308 311 313 311 315 319 318 314 305 301 304 291 285 305 291 312 350 354 336 322 316 313 340 332 323 332 345 360 5 357 356 6 13 15 23 27 25 21 17 16 15 16 18 20 17 13 12 4 355 356 350 339 342 346 339 335 335 337 339 341 341 334 329 322 305
205 205 207 208 207 207 206 204 206 213 223 234 242 249 261 269 273 279 288 298 304 306 303 299 303 307 309 307 298 293 295 284 267 190 222 263 327 351 345 325 308 299 297 286 293 298 300 319 335 338 347 356 7 17 26 30 27 20 14 10 7 9 11 11 11 10 5 355 344 345 343 334 331 332 334 330 327 329 331 332 335 330 320 313 304
204 205 208 209 209 207 207 207 210 214 221 230 235 242 256 263 267 273 283 295 307 311 305 297 296 301 303 298 291 286 284 267 226 187 214 244 299 339 347 336 308 289 288 274 275 282 275 285 298 306 323 333 348 10 18 20 17 11 7 3 360 0 2 4 6 2 356 349 337 334 334 329 325 327 330 327 320 319 320 323 328 326 317 313 310
204 206 208 208 207 206 207 210 213 216 221 226 230 238 252 258 262 271 281 292 305 310 307 302 300 302 299 291 285 281 271 222 186 201 221 236 269 310 337 342 323 290 287 275 269 273 266 271 280 284 297 308 316 327 334 346 355 357 360 360 356 353 357 6 5 355 347 341 332 329 330 329 328 326 325 323 316 310 311 315 320 319 315 315 316
204 207 208 207 205 205 208 212 217 218 219 223 228 238 250 254 258 265 273 281 279 274 283 290 292 294 291 286 280 274 253 201 195 219 221 227 251 281 312 333 335 306 289 280 269 270 266 269 275 278 284 287 291 309 322 332 339 343 349 352 351 352 1 6 359 348 338 330 324 323 321 320 318 313 310 310 305 304 309 313 318 320 318 319 322
204 207 208 206 203 204 209 216 221 220 219 224 230 238 247 250 253 257 263 273 268 261 272 282 287 291 286 280 275 268 247 210 209 221 215 224 242 266 290 316 332 324 303 285 271 271 268 265 271 278 282 283 286 299 317 325 328 330 332 337 342 349 357 355 347 340 332 325 321 319 316 313 311 307 309 307 301 303 309 314 323 328 325 324 323
205 207 207 204 202 204 210 218 224 223 225 229 232 240 247 247 251 253 257 269 271 269 277 282 288 293 286 283 273 257 248 224 213 204 203 225 240 257 277 301 319 318 310 294 278 277 270 265 272 275 278 284 287 297 315 315 313 312 315 324 334 339 341 340 338 338 335 331 329 327 325 324 323 324 326 323 318 316 316 319 327 328 323 319 310
201 202 202 200 202 207 212 219 227 228 231 234 236 243 247 245 250 252 254 264 272 280 290 283 282 286 281 284 278 256 249 234 216 206 207 226 237 248 264 288 305 307 305 301 293 289 280 275 276 273 277 284 287 307 327 305 298 299 308 320 329 330 331 334 336 338 338 337 337 338 339 340 338 339 339 335 334 331 328 329 330 325 319 313 307
190 193 198 200 204 210 215 224 232 233 236 240 242 245 243 240 245 250 254 262 262 263 268 263 267 276 273 275 276 264 249 232 220 218 219 223 231 243 256 274 289 291 291 289 287 287 292 297 290 274 278 281 283 345 333 290 283 292 310 325 331 327 326 330 334 335 333 336 340 343 346 349 344 339 336 334 335 334 331 331 328 322 315 308 306
185 194 202 206 211 217 223 229 236 238 240 243 246 245 239 235 240 247 253 254 242 239 246 254 266 278 278 274 273 267 251 230 218 213 216 222 231 244 253 265 277 278 276 274 271 270 282 297 294 286 292 279 252 13 327 262 268 290 309 325 326 317 319 325 328 329 329 334 339 342 346 348 340 333 330 331 333 330 327 326 324 320 313 305 303
197 208 218 222 224 231 236 237 240 243 244 246 247 244 236 234 240 248 251 249 245 249 256 264 273 278 276 270 267 268 260 236 213 201 208 222 237 246 251 259 274 280 272 263 259 256 261 270 269 275 287 275 234 259 260 248 263 288 298 304 304 306 315 321 322 325 329 333 336 338 342 339 331 328 329 329 329 325 322 322 321 317 313 308 304
238 241 246 244 243 247 250 251 251 252 252 253 250 245 240 240 246 250 249 246 249 258 269 277 279 277 270 262 259 265 267 245 219 211 214 225 238 249 257 262 269 279 275 258 249 248 251 255 255 263 277 271 240 243 258 260 272 288 291 296 302 308 315 318 320 324 327 328 331 332 331 328 325 327 330 329 328 326 325 326 325 323 321 318 314
299 287 278 271 268 267 266 266 265 263 262 257 251 246 245 247 252 254 253 252 253 262 273 279 281 280 277 268 258 255 261 257 236 225 227 235 240 246 257 265 267 272 272 261 247 236 240 249 257 268 277 265 243 247 262 273 286 292 295 301 306 310 316 317 320 324 322 322 324 321 320 323 325 326 328 328 329 331 331 332 332 331 329 325 321
313 304 297 293 289 284 281 277 274 271 267 261 256 251 248 251 256 256 255 257 258 260 263 263 264 269 273 272 264 253 252 258 253 239 236 242 248 248 249 257 264 269 270 262 249 241 243 251 262 272 275 264 254 260 271 282 289 294 301 307 309 314 318 318 320 319 315 315 316 314 318 325 327 327 329 330 331 334 335 335 335 333 331 327 323
313 311 307 301 296 294 291 287 283 279 273 264 260 256 253 258 263 258 252 256 261 262 258 253 254 259 261 263 263 258 251 250 251 248 245 247 254 254 247 246 256 265 267 261 254 254 257 261 265 270 272 269 267 270 277 282 287 293 302 307 312 320 323 321 319 315 311 312 313 314 322 328 329 331 333 332 332 335 337 334 331 330 330 328 324
314 311 308 303 301 301 297 293 289 287 284 275 264 255 252 259 264 258 250 252 259 262 258 253 253 256 260 262 263 259 254 250 247 247 248 253 260 261 252 246 251 259 263 261 258 259 262 264 267 270 271 270 270 272 276 280 284 291 301 313 322 327 326 323 318 312 311 314 316 320 325 327 328 331 333 332 333 336 336 331 326 325 329 328 322
318 310 305 303 305 304 301 297 291 288 289 288 280 267 256 258 264 263 256 253 256 260 261 259 259 260 261 264 265 261 256 254 252 251 252 256 260 260 257 253 256 262 263 256 254 257 260 263 267 268 267 268 269 272 277 284 292 299 309 319 322 321 320 319 316 314 317 319 318 319 322 324 326 329 331 331 332 334 334 330 325 325 328 327 318
330 328 323 319 313 307 305 303 295 288 285 285 287 283 271 262 264 266 262 255 252 255 259 258 257 259 257 256 260 264 260 255 256 253 250 250 249 247 251 259 266 269 262 247 248 258 262 266 268 267 267 270 274 279 287 292 295 300 306 311 312 313 314 315 316 318 319 315 312 315 318 321 324 328 330 329 330 332 332 330 328 328 327 323 314
338 342 338 330 318 304 304 305 301 299 294 288 291 294 288 278 272 270 269 263 254 252 254 252 248 249 248 243 243 245 244 245 252 246 232 229 233 235 243 254 256 251 242 240 249 258 261 264 268 269 270 272 274 278 283 283 281 284 291 297 302 306 309 311 312 314 313 308 309 313 316 319 322 326 328 327 328 331 332 330 330 328 324 318 312
334 332 330 325 314 302 299 295 289 291 293 291 291 294 294 294 290 284 283 281 272 264 262 260 255 251 250 249 246 242 237 240 249 252 240 231 230 232 237 243 242 239 241 247 253 256 257 256 258 260 263 265 267 269 272 272 274 277 283 290 296 300 304 305 305 305 305 306 309 313 317 320 322 325 327 326 326 327 329 330 329 326 321 317 311
328 320 311 306 303 303 305 302 290 284 286 289 288 288 291 294 298 300 299 293 286 281 280 280 274 265 258 257 256 256 255 254 256 260 258 252 247 245 246 247 246 246 250 252 252 253 252 250 251 255 257 259 263 269 271 273 275 277 280 287 294 299 300 298 298 300 303 307 312 317 321 324 325 325 325 324 323 324 325 327 327 324 321 318 314
329 324 318 310 303 300 301 305 301 292 290 292 291 288 290 293 298 306 306 296 287 289 294 300 298 286 273 268 263 261 263 263 260 260 260 259 257 256 253 249 244 243 245 247 247 247 245 245 248 252 254 256 261 265 268 270 273 276 280 285 292 299 301 300 300 304 308 313 317 320 323 325 324 322 321 322 323 322 322 323 323 323 321 318 316
331 330 329 323 316 310 304 302 301 297 292 291 290 290 292 294 296 301 302 298 294 293 295 299 302 299 292 285 274 264 261 259 258 257 258 258 259 259 258 253 245 238 239 244 248 250 249 248 248 250 253 256 258 261 265 268 271 276 280 284 291 298 302 302 303 307 312 315 316 317 319 321 321 320 321 323 324 322 321 321 321 321 319 316 314
334 335 336 331 329 331 327 313 307 305 300 298 299 297 296 295 294 295 296 296 294 292 292 295 299 298 294 287 279 272 265 260 259 258 257 257 257 255 254 252 245 237 235 239 246 251 252 250 250 251 254 256 259 262 265 267 271 276 279 283 288 293 297 300 301 305 309 310 310 313 316 318 321 323 323 323 322 320 319 320 320 318 315 313 313
338 340 341 330 322 323 319 309 306 303 297 292 291 289 288 290 290 289 288 289 289 289 291 292 293 290 283 280 281 279 270 263 262 261 257 256 255 251 247 245 244 239 236 238 244 250 252 251 251 252 253 256 259 261 263 267 271 275 277 280 285 290 296 300 302 305 308 307 308 313 317 320 325 328 326 321 319 319 318 318 318 316 314 313 313
342 337 333 320 308 305 304 304 305 302 298 299 299 295 292 290 289 288 286 285 285 287 287 288 289 287 283 284 289 289 279 269 265 262 260 258 254 249 245 242 242 243 242 242 245 250 253 255 255 254 254 257 259 260 264 268 270 273 276 280 286 293 299 304 306 309 310 311 314 318 322 324 327 328 324 319 318 318 318 318 316 315 315 316 315
337 330 325 320 319 318 314 311 308 303 303 307 310 306 298 290 287 287 287 286 285 285 286 288 291 290 289 292 294 293 289 282 272 266 264 259 254 251 248 244 241 242 246 248 249 251 253 255 256 257 258 259 259 260 263 266 267 270 275 281 288 295 299 303 307 310 312 314 317 320 321 322 323 323 321 317 317 318 318 317 315 314 315 317 316
337 331 325 319 321 326 326 319 310 303 301 303 303 300 296 291 289 288 288 288 289 288 288 291 291 290 292 295 290 282 283 285 282 278 273 266 257 252 249 247 243 242 246 249 250 252 254 253 252 253 256 257 258 262 265 266 267 271 277 284 288 293 296 300 305 309 311 312 314 315 316 318 320 323 322 319 319 319 317 316 315 314 313 313 313
336 335 329 321 322 326 327 320 310 305 304 301 298 297 295 293 292 291 290 290 291 291 291 292 292 291 292 291 286 279 275 275 277 278 278 274 266 257 250 247 245 245 248 249 248 250 254 252 249 250 253 258 263 267 268 269 270 274 281 286 288 292 296 300 304 308 310 311 313 314 316 320 323 324 323 322 321 319 317 315 315 315 312 311 311
336 334 331 329 327 324 322 319 313 309 304 297 295 298 297 295 293 292 292 292 292 293 293 292 292 293 292 288 285 280 276 276 277 274 270 270 272 268 259 252 247 247 250 252 251 250 251 250 249 251 256 263 268 269 269 271 275 279 284 287 289 291 296 301 305 308 311 312 313 315 317 321 322 321 321 322 322 320 318 316 315 314 313 311 311
336 334 333 334 327 318 314 313 309 305 302 300 301 301 298 294 291 291 292 293 293 293 294 292 293 295 294 291 288 279 274 281 285 279 269 263 264 268 269 264 256 252 252 253 253 251 248 247 249 254 260 265 267 267 269 273 276 280 285 289 290 292 297 302 306 309 310 310 311 314 317 319 320 319 320 322 322 320 319 317 315 314 313 313 313
337 338 337 331 323 316 313 309 306 304 303 301 298 294 290 291 292 291 291 293 292 293 294 293 296 298 297 295 293 286 281 286 290 285 276 268 263 263 266 267 265 260 255 252 250 246 244 247 252 258 264 267 268 269 270 272 276 281 285 289 291 293 297 301 305 308 309 310 313 315 316 317 319 320 321 323 322 320 318 316 315 315 314 314 314
341 341 332 322 317 314 312 309 307 305 301 298 298 298 299 301 300 297 295 293 293 294 295 295 298 301 299 296 295 292 289 291 291 287 282 277 271 268 267 266 265 263 260 257 255 252 254 258 262 266 268 269 268 269 271 274 278 283 285 287 288 290 294 299 303 307 309 310 312 315 316 318 320 322 322 323 322 320 317 317 316 316 316 315 315
340 334 324 319 317 314 310 307 304 302 300 300 303 305 305 305 303 301 299 297 295 296 297 297 298 299 297 296 295 291 288 288 288 284 281 278 275 272 269 266 265 266 266 265 263 262 265 268 269 269 267 265 266 270 275 279 281 283 283 283 285 288 294 299 301 303 307 310 312 314 316 319 321 322 322 322 322 319 317 317 317 316 315 315 315
340 335 326 322 319 314 310 309 307 305 304 304 304 303 302 301 300 298 298 297 296 295 295 296 297 296 294 294 294 291 288 286 284 282 281 279 276 274 271 268 266 266 265 264 264 267 270 272 271 269 266 265 268 274 279 283 285 282 279 280 283 288 293 297 299 303 308 311 312 315 317 319 320 322 322 321 321 319 318 317 317 315 314 314 313
339 333 324 318 314 310 309 311 310 307 305 307 308 307 304 301 298 297 297 297 297 297 298 300 302 300 297 295 294 293 293 291 288 286 286 284 280 277 273 269 266 264 264 265 268 271 274 273 271 270 269 268 272 277 281 285 287 284 279 280 283 286 292 296 301 307 311 312 312 316 318 318 319 321 322 321 321 320 319 318 317 316 315 313 312
334 327 319 313 308 305 305 307 307 304 303 306 307 305 303 301 301 302 300 298 298 299 299 300 301 300 299 298 297 296 296 294 292 290 288 285 284 282 278 273 271 269 270 273 275 276 276 274 274 275 275 272 273 276 280 282 283 282 282 286 288 291 297 304 308 311 312 312 314 317 317 317 319 321 321 321 322 320 319 318 317 316 316 314 313
330 323 315 310 305 302 302 302 300 299 301 302 300 300 301 301 301 301 300 299 299 299 298 299 300 300 300 299 298 299 298 295 293 292 291 289 287 283 279 279 280 279 281 284 283 279 278 280 282 284 282 278 275 275 276 278 279 279 282 287 291 296 303 308 310 310 311 312 315 317 316 317 319 320 321 322 323 320 318 317 317 316 316 315 314
323 316 310 308 306 303 302 300 297 298 300 301 299 299 301 301 301 301 302 302 301 300 301 302 302 301 301 301 300 299 299 297 294 293 292 290 287 284 282 283 285 287 290 293 290 283 283 287 291 291 287 282 278 276 273 273 275 278 282 288 293 300 305 308 307 309 312 314 315 316 317 318 320 321 322 323 323 320 319 319 317 316 315 314 314
317 312 310 309 307 303 299 298 296 296 295 295 295 295 297 299 300 300 300 300 301 301 302 303 301 299 299 300 300 300 299 298 295 293 290 288 288 288 288 289 290 292 297 300 298 292 291 293 296 297 292 284 278 275 272 272 275 279 285 292 298 304 307 307 308 311 314 315 315 317 319 321 322 322 324 324 323 321 320 319 318 317 316 314 314